STARLINK-37546, 69467

Orbit data source: Space-Track

STARLINK-37546, 69467 is a payload satellite owned by SpaceX/Seattle (US) in LEO that was launched on Mon, 08 Jun 2026 UTC via an FALCON 9 launch vehicle from the Air Force Eastern Test Range (AFETR). Payload-class satellites include a variety of spacecraft equipped with specific instruments for various scientific and technological missions. These include communications satellites like Starlink; space stations such as the ISS; scientific satellites like the Hubble; Earth observation satellites from companies like Planet Labs, Umbra, and HawkEye 360; GPS; miniature CubeSats for education and research; and military/defense satellites.

Loading next visibility...
Identifier
69467, 2026-127AA
Orbit
LEO
Country
Flag of USUS
Related business
Manufacturer
SpaceX/Seattle
Mission
Operational spacecraft
Bus & Motor
STARLINK V2MO, Unknown motor
Mass
575 kg wet, ~530 kg dry
Launch date (UTC)
2026-06-08 (2 weeks ago)
Launch vehicle
FALCON 9
Launch site
Air Force Eastern Test Range (AFETR)
Object type
Payload
Rocket body
Debris
Shape & HBR
Unknown
Radar Cross Section
RCS unknown

Expand to show TLE details & history
Last TLE update: 10 hours ago

TLE from 10 hours ago
0 STARLINK-37546
1 69467U 26127AA  26171.41668980 -.01986596  00000-0 -12016-1 0  9996
2 69467  53.1593 245.6939 0000961  70.7330 261.4903 15.80135367  3168
Epoch: 2026-06-20T10:00Z
TLE epoch observation values (Epoch: 2026-06-20T10:00:01.998Z)
Latitude
-22.0997°
Longitude
169.44595°
Altitude
336.418 km
Speed
7.707 km/s
True Right ascension
15h 12m 20s
True Declination
-21° 58' 21"
Sunlit
Object was in full shadow at epoch
Visualization orbit readout
Latitude
Unknown
Longitude
Unknown
Altitude
Unknown
Speed
Unknown
Apparent Right ascension
Unknown
Apparent Declination
Unknown
Sunlit
N/A
Visualization observer readout
Local Sidereal Time
07:13:23
Azimuth
Unknown
Elevation
Unknown
Doppler factor
Unknown
Orbital elements
Apogee altitude
330.964 km
Perigee altitude
329.675 km
Semi-major axis
6,708.456 km
Eccentricity
0.0001
Inclination
53.1593°
RAAN
245.6939°
Arg. of periapsis
70.733°
True anomaly
261.47941°
Mean anomaly
261.4903°
Eccentric anomaly
261.48485°
Mean motion
3.95011 °/min
Orbital period
91.14 mins
BSTAR
-0.012016
Loading maneuver chart data...
Computing Atmospheric mass density...
Loading historical data...
Loading historical data...
Loading historical data...
Loading historical data...
Loading historical data...
Loading historical data...
Loading historical data...

Documentation

Showing up to 5 results
|